Nellis AFB, NV

9:40 AM PDT on October 23, 2019 (GMT -0700)
Nellis Air Force Base

Weather History for KLSV - September, 2019

Change the Weather History Date:

Tuesday, September 17, 2019

  Actual Average Record
Temperature  
Mean Temperature 80 °F -  
Max Temperature 88 °F 92 °F 105 °F (2000)
Min Temperature 73 °F 66 °F 59 °F (2005)
Cooling Degree Days 16    
Growing Degree Days 30 (Base 50)    
Moisture  
Dew Point 30 °F    
Average Humidity 17    
Maximum Humidity 26    
Minimum Humidity 8    
Precipitation  
Precipitation 0.00 in - - ()
Sea Level Pressure  
Sea Level Pressure 29.80 in    
Wind  
Wind Speed 14 mph (South)    
Max Wind Speed 25 mph    
Max Gust Speed 40 mph    
Visibility 10 miles    
Events      
Averages and records for this station are not official NWS values.
T = Trace of Precipitation, MM = Missing Value Source: NWS Daily Summary

Daily Weather History Graph

Daily Weather History Graph

Search for Another Location

Airport or City:

Astronomy

Sep. 17, 2019 Rise Set
Actual Time 6:24 AM PDT 6:44 PM PDT
Civil Twilight 5:58 AM PDT 7:10 PM PDT
Nautical Twilight 5:28 AM PDT 7:40 PM PDT
Astronomical Twilight 4:57 AM PDT 8:11 PM PDT
Moon 8:55 PM PDT (9/17) 9:27 AM PDT (9/17)
Length of Visible Light 13h 12m
Length of Day
12h 20m
Waning Gibbous, 88% of the Moon is Illuminated
Sep 17
Waning Gibbous
Sep 21
Last Quarter
Sep 28
New
Oct 5
First Quarter
Oct 13
Full

Hourly Weather History & Observations

Time (PDT) Temp. Dew Point Humidity Pressure Visibility Wind Dir Wind Speed Gust Speed Precip Events Conditions
12:11 AM 82.4 °F 30.2 °F 15% 29.70 in 10.0 mi ESE 12.7 mph - N/A   Clear
12:58 AM 79.9 °F 31.1 °F 17% 29.72 in 10.0 mi SSE 18.4 mph 25.3 mph N/A   Clear
1:58 AM 78.3 °F 33.8 °F 20% 29.71 in 10.0 mi SE 23.0 mph 31.1 mph N/A   Clear
2:58 AM 76.8 °F 34.0 °F 21% 29.72 in 10.0 mi SSE 25.3 mph 40.3 mph N/A   Clear
4:58 AM 74.7 °F 36.5 °F 25% 29.75 in 10.0 mi SSE 20.7 mph - N/A   Clear
5:05 AM 75.2 °F 35.6 °F 24% 29.76 in 10.0 mi SE 20.7 mph - N/A   Clear
5:58 AM 73.0 °F 36.1 °F 26% 29.78 in 10.0 mi SE 24.2 mph 29.9 mph N/A   Clear
6:58 AM 73.4 °F 36.5 °F 26% 29.83 in 10.0 mi South 17.3 mph 26.5 mph N/A   Clear
7:58 AM 75.6 °F 37.2 °F 25% 29.86 in 10.0 mi SSW 16.1 mph - N/A   Clear
8:58 AM 78.6 °F 35.4 °F 21% 29.89 in 10.0 mi WSW 12.7 mph - N/A   Clear
9:58 AM 81.0 °F 34.9 °F 19% 29.90 in 10.0 mi WSW 10.4 mph - N/A   Clear
10:58 AM 81.3 °F 35.1 °F 19% 29.90 in 10.0 mi Calm Calm - N/A   Clear
11:58 AM 83.1 °F 33.8 °F 17% 29.89 in 10.0 mi SW 6.9 mph - N/A   Clear
12:58 PM 85.1 °F 30.6 °F 14% 29.87 in 10.0 mi South 8.1 mph - N/A   Clear
1:58 PM 87.1 °F 30.2 °F 13% 29.83 in 10.0 mi South 11.5 mph - N/A   Clear
2:58 PM 86.4 °F 27.7 °F 12% 29.82 in 10.0 mi SE 8.1 mph - N/A   Clear
3:58 PM 88.0 °F 24.6 °F 10% 29.80 in 10.0 mi South 10.4 mph 17.3 mph N/A   Clear
4:26 PM 87.8 °F 23.0 °F 9% 29.78 in 10.0 mi South 18.4 mph 23.0 mph N/A   Clear
4:58 PM 88.2 °F 22.3 °F 9% 29.78 in 10.0 mi South 13.8 mph - N/A   Clear
5:58 PM 87.1 °F 18.7 °F 8% 29.77 in 10.0 mi SSW 11.5 mph - N/A   Clear
6:55 PM 83.5 °F 18.7 °F 9% 29.77 in 10.0 mi SW 6.9 mph - N/A   Clear
7:55 PM 80.2 °F 20.7 °F 11% 29.78 in 10.0 mi SSW 4.6 mph - N/A   Clear
8:55 PM 78.6 °F 27.1 °F 15% 29.79 in 10.0 mi South 6.9 mph - N/A   Clear
9:55 PM 79.2 °F 29.1 °F 16% 29.81 in 10.0 mi Variable 1.2 mph - N/A   Clear
10:55 PM 77.2 °F 25.5 °F 15% 29.80 in 10.0 mi SSE 3.5 mph - N/A   Clear
11:58 PM 75.7 °F 30.6 °F 19% 29.79 in 10.0 mi South 9.2 mph - N/A   Clear